Simultaneous Nadir Overpasses (SNOs) Predictions

Prediction of SNOs between LANDSAT-8 and NOAA-19 Satellite Orbit:

Table of predicted SNOs for the next 14.0 days since TLE Epoch: 1/20/2024
Index Date (LANDSAT-8) Time (LANDSAT-8) Lat,Lon (LANDSAT-8) SZA (LANDSAT-8 ) Date (NOAA-19) Time (NOAA-19) Lat,Lon (NOAA-19) SZA (NOAA-19 ) Distance(km) Time Diff (sec)
1 01/20/2024 22:21:38 -80.88, 60.93 77.64 01/20/2024 22:21:45 -80.87, 60.93 77.65 0.99 7
2 01/23/2024 04:44:47 -80.87, -34.91 78.17 01/23/2024 04:44:55 -80.86, -34.98 78.18 1.50 8
3 01/25/2024 11:07:56 -80.86,-130.92 78.75 01/25/2024 11:08:05 -80.86,-130.97 78.75 0.92 9
4 01/27/2024 17:31:04 -80.85, 133.26 79.34 01/27/2024 17:31:14 -80.86, 133.32 79.32 1.26 10
5 01/29/2024 23:54:10 -80.86, 37.62 79.92 01/29/2024 23:54:22 -80.86, 37.53 79.93 1.84 12



Historial Predications of SNOs between LANDSAT-8 and NOAA-19
